• Join FlightAware (Why Join?)
  • Login
  • US Flag 
11:52AM EST


 

Airport Tracker/Info


-or-


 

Live Flight TrackerFlight Track Log ✈ SWA2353 ✈ 06-Jul-2013 ✈ KSAN - KSMF

Flight Track Log - Related Links

Times and Time Zones

All times are in EDT time to prevent confusion due to time zone crossing. See the SWA2353 flight status page for this flight to view local times or setup timezone preferences in your user account.

Time Position Orientation Groundspeed Altitude Reporting Facility
EDT Latitude Longitude Course Direction KTS MPH feet Rate Location/Type
04:47PM 32.7403 -117.2144 304° West 178 205 1,200  Level Los Angeles Center
04:48PM 32.7722 -117.2706 304° West 204 235 3,500 2,390 Climbing Los Angeles Center
04:49PM 32.8131 -117.3397 305° West 229 264 6,100 3,000 Climbing Los Angeles Center
04:50PM 32.8731 -117.4283 309° West 269 310 9,700 2,661 Climbing Los Angeles Center
04:51PM 32.9350 -117.5067 313° West 302 348 11,600 2,081 Climbing Los Angeles Center
04:52PM 33.0000 -117.5939 312° West 334 384 14,000 2,244 Climbing Los Angeles Center
04:53PM 33.0692 -117.6850 312° West 354 407 16,200 2,098 Climbing Los Angeles Center
04:54PM 33.1400 -117.7792 312° West 369 425 18,300 1,887 Climbing Los Angeles Center
04:55PM 33.2006 -117.8897 303° West 386 444 20,100 1,597 Climbing Los Angeles Center
04:56PM 33.2886 -117.9708 322° Northwest 408 470 21,600 1,721 Climbing Los Angeles Center
04:57PM 33.4439 -118.0461 338° Northwest 428 493 24,000 1,853 Climbing Los Angeles Center
04:58PM 33.5567 -118.1017 338° Northwest 437 503 25,800 1,548 Climbing Los Angeles Center
04:59PM 33.6689 -118.1567 338° Northwest 438 504 27,200 1,258 Climbing Los Angeles Center
05:00PM 33.7828 -118.2117 338° Northwest 446 513 28,400 1,366 Climbing Los Angeles Center
05:01PM 33.9228 -118.2811 338° Northwest 463 533 30,000 1,610 Climbing Los Angeles Center
05:02PM 34.0369 -118.3400 337° Northwest 456 525 31,700 1,548 Climbing Los Angeles Center
05:03PM 34.1508 -118.3972 337° Northwest 448 516 33,200 1,210 Climbing Los Angeles Center
05:04PM 34.2642 -118.4528 338° Northwest 443 510 34,200 871 Climbing Los Angeles Center
05:05PM 34.3561 -118.5000 337° Northwest 446 513 35,000 871 Climbing Los Angeles Center
05:06PM 34.5144 -118.5811 337° Northwest 443 510 36,000 484 Climbing Los Angeles Center
05:07PM 34.6283 -118.6389 337° Northwest 444 511 36,000  Level Los Angeles Center
05:08PM 34.7433 -118.6978 337° Northwest 447 514 36,000  Level Los Angeles Center
05:10PM 34.8583 -118.7556 338° Northwest 448 516 36,000  Level Los Angeles Center
05:11PM 34.9928 -118.8214 338° Northwest 451 519 36,000  Level Los Angeles Center
05:12PM 35.1322 -118.8911 338° Northwest 452 520 36,000  Level Los Angeles Center
05:13PM 35.2472 -118.9514 337° Northwest 451 519 36,000  Level Los Angeles Center
05:14PM 35.3622 -119.0108 337° Northwest 451 519 36,000  Level Los Angeles Center
05:15PM 35.4794 -119.0722 337° Northwest 454 522 36,000  Level Los Angeles Center
05:16PM 35.5958 -119.1347 336° Northwest 456 525 36,000  Level Los Angeles Center
05:17PM 35.7069 -119.2058 333° Northwest 454 522 36,000  Level Los Angeles Center
05:18PM 35.8381 -119.2928 332° Northwest 449 517 36,000  Level Los Angeles Center
05:19PM 35.9258 -119.3503 332° Northwest 458 527 36,000  Level Oakland Center
05:20PM 36.0361 -119.4217 332° Northwest 453 521 36,000  Level Oakland Center
05:21PM 36.1458 -119.4936 332° Northwest 450 518 36,000  Level Oakland Center
05:22PM 36.2575 -119.5683 332° Northwest 456 525 36,000  Level Oakland Center
05:23PM 36.3917 -119.6558 332° Northwest 457 526 36,000  Level Oakland Center
05:24PM 36.5031 -119.7303 332° Northwest 457 526 36,000  Level Oakland Center
05:25PM 36.6150 -119.8042 332° Northwest 458 527 36,000  Level Oakland Center
05:26PM 36.7261 -119.8800 331° Northwest 457 526 36,000  Level Oakland Center
05:27PM 36.8383 -119.9533 332° Northwest 457 526 36,000 -545 Level Oakland Center
05:28PM 36.9497 -120.0292 331° Northwest 457 526 34,900 -2,033 Descending Oakland Center
05:29PM 37.0606 -120.1031 332° Northwest 454 522 31,900 -2,803 Descending Oakland Center
05:30PM 37.1847 -120.1819 333° Northwest 452 520 29,200 -2,459 Descending Oakland Center
05:31PM 37.2894 -120.2544 331° Northwest 438 504 26,900 -2,213 Descending Oakland Center
05:32PM 37.3914 -120.3239 332° Northwest 421 484 24,700 -1,686 Descending Oakland Center
05:33PM 37.4833 -120.4000 327° Northwest 390 449 23,500 -1,053 Descending Northern Cal TRACON
05:34PM 37.5667 -120.4833 322° Northwest 397 457 22,700 -950 Descending Northern Cal TRACON
05:35PM 37.6667 -120.5833 322° Northwest 404 465 21,600 -969 Descending Northern Cal TRACON
05:36PM 37.7414 -120.6642 319° Northwest 396 456 20,600 -1,053 Descending Oakland Center
05:37PM 37.8167 -120.7333 324° Northwest 378 435 19,600 -1,033 Descending Northern Cal TRACON
05:38PM 37.9031 -120.8278 319° Northwest 369 425 18,500 -1,038 Descending Oakland Center
05:39PM 37.9814 -120.9072 321° Northwest 362 417 17,300 -1,033 Descending Oakland Center
05:40PM 38.0594 -120.9872 321° Northwest 360 414 16,400 -885 Descending Oakland Center
05:41PM 38.1283 -121.0817 313° West 365 420 15,500 -1,019 Descending Oakland Center
05:42PM 38.1833 -121.1667 309° West 376 433 14,600 -1,029 Descending Northern Cal TRACON
05:43PM 38.2500 -121.2667 310° West 379 436 13,700 -1,000 Descending Northern Cal TRACON
05:44PM 38.3167 -121.3667 310° West 372 428 12,600 -1,100 Descending Northern Cal TRACON
05:45PM 38.3833 -121.4667 310° West 345 397 11,500 -1,350 Descending Northern Cal TRACON
05:46PM 38.4500 -121.5500 316° Northwest 315 362 9,900 -1,400 Descending Northern Cal TRACON
05:47PM 38.5167 -121.6000 330° Northwest 298 343 8,700 -1,524 Descending Northern Cal TRACON
05:48PM 38.5833 -121.6667 322° Northwest 299 344 6,700 -1,750 Descending Northern Cal TRACON
05:49PM 38.6667 -121.6833 351° North 290 334 5,200 -1,579 Descending Northern Cal TRACON
05:50PM 38.7333 -121.7000 349° North 235 270 3,700 -1,150 Descending Northern Cal TRACON
05:51PM 38.7833 -121.7000 360° North 198 228 2,900 -950 Descending Northern Cal TRACON
05:52PM 38.7833 -121.6500 90° East 152 175 1,800 -1,000 Descending Northern Cal TRACON
05:53PM 38.7500 -121.6167 142° Southeast 142 163 1,000 -800 Descending Northern Cal TRACON
05:54PM 38.7167 -121.6000 159° South 138 159 200 -727 Descending Northern Cal TRACON